EN

Hourly Weather La Estancia

Today, 28 July, Wednesday

Time Temperature Precipitation Wind Pressure Humidity
00:00 +15°C° 0 mm 2 mps 607 mmHg 91%
01:00 +15°C° 0 mm 1 mps 606 mmHg 92%
02:00 +14°C° 0 mm 1 mps 606 mmHg 94%
03:00 +14°C° 0 mm 1 mps 606 mmHg 94%
04:00 +14°C° 0 mm 1 mps 606 mmHg 94%
05:00 +13°C° 0 mm 1 mps 606 mmHg 94%
06:00 +15°C° 0 mm 2 mps 607 mmHg 86%
07:00 +17°C° 0 mm 2 mps 607 mmHg 79%
08:00 +18°C° 0 mm 2 mps 608 mmHg 72%
09:00 +20°C° 0 mm 2 mps 608 mmHg 64%
10:00 +22°C° 0 mm 3 mps 609 mmHg 57%
11:00 +25°C° 0 mm 3 mps 609 mmHg 49%
12:00 +25°C° 0 mm 3 mps 609 mmHg 46%
13:00 +26°C° 0 mm 3 mps 608 mmHg 42%
14:00 +27°C° 0 mm 3 mps 608 mmHg 39%
15:00 +26°C° 0 mm 4 mps 607 mmHg 42%
16:00 +25°C° 0 mm 4 mps 607 mmHg 46%
17:00 +23°C° 0 mm 4 mps 606 mmHg 50%
18:00 +22°C° 0.1 mm 4 mps 606 mmHg 58%
19:00 +20°C° 0.1 mm 3 mps 606 mmHg 66%
20:00 +18°C° 0.1 mm 2 mps 606 mmHg 73%
21:00 +17°C° 0 mm 2 mps 606 mmHg 79%
22:00 +17°C° 0 mm 2 mps 606 mmHg 84%
23:00 +16°C° 0 mm 2 mps 606 mmHg 90%

Tomorrow, 29 July, Thursday

Time Temperature Precipitation Wind Pressure Humidity
00:00 +16°C° 0 mm 2 mps 606 mmHg 91%
01:00 +15°C° 0 mm 2 mps 605 mmHg 92%
02:00 +15°C° 0 mm 2 mps 605 mmHg 93%
03:00 +15°C° 0 mm 2 mps 605 mmHg 93%
04:00 +15°C° 0 mm 1 mps 606 mmHg 93%
05:00 +15°C° 0 mm 1 mps 606 mmHg 93%
06:00 +16°C° 0 mm 2 mps 606 mmHg 87%
07:00 +18°C° 0 mm 2 mps 607 mmHg 81%
08:00 +19°C° 0 mm 2 mps 608 mmHg 74%
09:00 +21°C° 0 mm 3 mps 608 mmHg 67%
10:00 +22°C° 0 mm 3 mps 608 mmHg 60%
11:00 +25°C° 0 mm 4 mps 608 mmHg 53%
12:00 +26°C° 0.4 mm 4 mps 608 mmHg 51%
13:00 +26°C° 0.4 mm 4 mps 607 mmHg 49%
14:00 +26°C° 0.4 mm 4 mps 607 mmHg 47%
15:00 +25°C° 0.1 mm 4 mps 607 mmHg 53%
16:00 +23°C° 0.1 mm 4 mps 606 mmHg 58%
17:00 +21°C° 0.1 mm 4 mps 606 mmHg 64%
18:00 +20°C° 0 mm 4 mps 606 mmHg 71%
19:00 +18°C° 0 mm 3 mps 606 mmHg 78%
20:00 +17°C° 0 mm 3 mps 606 mmHg 85%
21:00 +16°C° 0 mm 2 mps 606 mmHg 86%
22:00 +16°C° 0 mm 2 mps 607 mmHg 88%
23:00 +15°C° 0 mm 2 mps 607 mmHg 89%

Day after tomorrow, 30 July, Friday

Time Temperature Precipitation Wind Pressure Humidity
00:00 +15°C° 0 mm 2 mps 606 mmHg 91%
01:00 +14°C° 0 mm 2 mps 606 mmHg 92%
02:00 +14°C° 0 mm 1 mps 606 mmHg 93%
03:00 +14°C° 0 mm 1 mps 606 mmHg 93%
04:00 +14°C° 0 mm 2 mps 606 mmHg 93%
05:00 +13°C° 0 mm 2 mps 606 mmHg 93%
06:00 +15°C° 0 mm 2 mps 607 mmHg 85%
07:00 +17°C° 0 mm 2 mps 607 mmHg 78%
08:00 +19°C° 0 mm 3 mps 608 mmHg 70%
09:00 +20°C° 0 mm 4 mps 609 mmHg 65%
10:00 +22°C° 0 mm 4 mps 609 mmHg 60%
11:00 +25°C° 0 mm 5 mps 609 mmHg 55%
12:00 +25°C° 0 mm 5 mps 608 mmHg 55%
13:00 +25°C° 0 mm 5 mps 608 mmHg 56%
14:00 +23°C° 0 mm 5 mps 608 mmHg 57%
15:00 +23°C° 0.2 mm 6 mps 607 mmHg 61%
16:00 +22°C° 0.2 mm 6 mps 607 mmHg 65%
17:00 +22°C° 0.2 mm 6 mps 607 mmHg 69%
18:00 +20°C° 0.2 mm 5 mps 607 mmHg 76%
19:00 +18°C° 0.2 mm 4 mps 607 mmHg 83%
20:00 +17°C° 0.2 mm 3 mps 607 mmHg 91%
21:00 +16°C° 0 mm 3 mps 607 mmHg 92%
22:00 +16°C° 0 mm 3 mps 607 mmHg 93%
23:00 +15°C° 0 mm 2 mps 607 mmHg 94%

31 July, Saturday

Time Temperature Precipitation Wind Pressure Humidity
00:00 +15°C° 0 mm 2 mps 607 mmHg 94%
01:00 +15°C° 0 mm 2 mps 607 mmHg 94%
02:00 +14°C° 0 mm 2 mps 606 mmHg 94%
03:00 +14°C° 0 mm 2 mps 607 mmHg 94%
04:00 +14°C° 0 mm 2 mps 607 mmHg 94%
05:00 +13°C° 0 mm 2 mps 607 mmHg 93%
06:00 +15°C° 0 mm 2 mps 607 mmHg 87%
07:00 +17°C° 0 mm 2 mps 608 mmHg 80%
08:00 +18°C° 0 mm 3 mps 609 mmHg 73%
09:00 +20°C° 0 mm 3 mps 609 mmHg 64%
10:00 +22°C° 0 mm 3 mps 610 mmHg 56%
11:00 +25°C° 0 mm 4 mps 610 mmHg 47%
12:00 +26°C° 0 mm 4 mps 610 mmHg 44%
13:00 +27°C° 0 mm 4 mps 609 mmHg 41%
14:00 +27°C° 0 mm 5 mps 609 mmHg 38%
15:00 +26°C° 0 mm 5 mps 609 mmHg 43%
16:00 +26°C° 0 mm 6 mps 608 mmHg 47%
17:00 +24°C° 0 mm 6 mps 608 mmHg 52%
18:00 +22°C° 0 mm 5 mps 608 mmHg 63%
19:00 +19°C° 0 mm 4 mps 608 mmHg 74%
20:00 +17°C° 0 mm 3 mps 608 mmHg 85%
21:00 +17°C° 0 mm 2 mps 608 mmHg 87%
22:00 +16°C° 0 mm 2 mps 608 mmHg 89%
23:00 +16°C° 0 mm 1 mps 608 mmHg 91%

1 August, Sunday

Time Temperature Precipitation Wind Pressure Humidity
00:00 +15°C° 0 mm 1 mps 607 mmHg 92%
01:00 +15°C° 0 mm 1 mps 607 mmHg 92%
02:00 +15°C° 0 mm 1 mps 607 mmHg 93%
03:00 +15°C° 0 mm 1 mps 607 mmHg 93%
04:00 +15°C° 0 mm 1 mps 607 mmHg 93%
05:00 +14°C° 0 mm 1 mps 607 mmHg 94%
06:00 +16°C° 0 mm 2 mps 608 mmHg 87%
07:00 +18°C° 0 mm 2 mps 608 mmHg 81%
08:00 +19°C° 0 mm 2 mps 609 mmHg 74%
09:00 +21°C° 0 mm 3 mps 609 mmHg 67%
10:00 +22°C° 0 mm 3 mps 609 mmHg 59%
11:00 +25°C° 0 mm 4 mps 609 mmHg 52%
12:00 +26°C° 0 mm 4 mps 609 mmHg 48%
13:00 +27°C° 0 mm 4 mps 609 mmHg 44%
14:00 +28°C° 0 mm 5 mps 608 mmHg 40%
15:00 +27°C° 0 mm 5 mps 608 mmHg 44%
16:00 +26°C° 0 mm 5 mps 607 mmHg 49%
17:00 +23°C° 0 mm 5 mps 607 mmHg 54%
18:00 +21°C° 0 mm 4 mps 607 mmHg 61%
19:00 +20°C° 0 mm 3 mps 607 mmHg 68%
20:00 +18°C° 0 mm 3 mps 607 mmHg 75%
21:00 +17°C° 0 mm 2 mps 607 mmHg 78%
22:00 +16°C° 0 mm 1 mps 607 mmHg 81%
23:00 +16°C° 0 mm 1 mps 606 mmHg 83%

2 August, Monday

Time Temperature Precipitation Wind Pressure Humidity
00:00 +15°C° 0 mm 1 mps 606 mmHg 84%
01:00 +15°C° 0 mm 1 mps 606 mmHg 84%
02:00 +15°C° 0 mm 1 mps 606 mmHg 84%
03:00 +15°C° 0 mm 1 mps 606 mmHg 85%
04:00 +14°C° 0 mm 1 mps 606 mmHg 85%
05:00 +14°C° 0 mm 1 mps 606 mmHg 85%
06:00 +16°C° 0 mm 1 mps 607 mmHg 79%
07:00 +19°C° 0 mm 1 mps 607 mmHg 74%
08:00 +20°C° 0 mm 1 mps 608 mmHg 68%
09:00 +22°C° 0.3 mm 1 mps 608 mmHg 64%
10:00 +23°C° 0.3 mm 2 mps 608 mmHg 59%
11:00 +25°C° 0.3 mm 2 mps 608 mmHg 55%
12:00 +25°C° 0.8 mm 2 mps 608 mmHg 53%
13:00 +26°C° 0.8 mm 2 mps 608 mmHg 51%
14:00 +27°C° 0.8 mm 2 mps 607 mmHg 48%
15:00 +25°C° 1 mm 3 mps 607 mmHg 56%
16:00 +24°C° 1 mm 3 mps 606 mmHg 63%
17:00 +22°C° 1 mm 4 mps 606 mmHg 70%
18:00 +20°C° 1.4 mm 3 mps 606 mmHg 75%
19:00 +19°C° 1.4 mm 3 mps 606 mmHg 81%
20:00 +17°C° 1.4 mm 2 mps 606 mmHg 87%
21:00 +17°C° 0.1 mm 2 mps 606 mmHg 86%
22:00 +18°C° 0.1 mm 1 mps 606 mmHg 86%
23:00 +16°C° 0.1 mm 1 mps 606 mmHg 86%
Show more